Location: Terra Rouge Observatory
(46.0000°N, 62.7500°W)
Time: 15:12:21
(UTC-04:00)

Amateur Radio Satellites - All Passes

Search period start: 19 February 2017 14:42
Search period end: 20 February 2017 14:42
Location: Terra Rouge Observatory, 46.0000°N, 62.7500°W

Satellite Date Start Highest point End Downlink Frequencies (MHz)
Time Altitude Azimuth
AO-85 19 Feb 14:57:16 15:01:03 49° 239° (WSW) 15:04:52 145.980
Tancredo 1 19 Feb 14:58:56 15:02:01 39° 16° (NNE) 15:05:05 437.200
BEESAT 3 19 Feb 15:17:01 15:20:11 22° 40° (NE) 15:23:20 437.485
BEESAT 2 19 Feb 15:40:16 15:43:09 18° 37° (NE) 15:46:01 435.950
KKS-1 19 Feb 15:44:46 15:47:58 19° 92° (E) 15:51:08 437.445
ISS 19 Feb 15:54:02 15:57:20 79° 27° (NNE) 16:00:36 437.550
MOZHAYETS 4 19 Feb 16:00:22 16:05:01 85° 288° (WNW) 16:09:38
ITUPSAT 1 19 Feb 16:06:01 16:10:20 33° 294° (WNW) 16:14:36 437.325
AO-7 19 Feb 16:06:59 16:14:13 32° 265° (W) 16:21:30 .
LilacSat-2 19 Feb 16:11:47 16:13:34 13° 62° (ENE) 16:15:21 437.200
RS-15 19 Feb 16:13:53 16:19:06 14° 92° (E) 16:24:21 29.354- 29.394
BEESAT 19 Feb 16:17:29 16:21:28 26° 296° (WNW) 16:25:23 436.000
HO-68 19 Feb 16:20:31 16:22:25 11° 42° (NE) 16:24:18 435.675
ITAMSAT 1 19 Feb 16:22:20 16:23:11 10° 274° (W) 16:24:02 435.822/435.867
Tancredo 1 19 Feb 16:35:15 16:38:24 47° 215° (SW) 16:41:29 437.200
CUTE-I 19 Feb 16:37:02 16:41:38 30° 64° (ENE) 16:46:15 437.470
STARS 19 Feb 16:37:19 16:41:12 29° 96° (E) 16:45:05 437.465
NUDT-PHONESAT 19 Feb 16:37:26 16:40:04 18° 65° (ENE) 16:42:43 437.300
PCSat 19 Feb 16:38:48 16:42:35 19° 106° (ESE) 16:46:21 145.827
CUBESAT XI-V 19 Feb 16:41:36 16:46:01 43° 98° (E) 16:50:23 437.345
BEESAT 3 19 Feb 16:54:09 16:58:05 54° 239° (WSW) 17:01:58 437.485
BEESAT 2 19 Feb 17:17:21 17:21:23 73° 238° (WSW) 17:25:25 435.950
XW-2F 19 Feb 17:20:11 17:23:59 65° 75° (ENE) 17:27:49 145.980 - 146.000
KKS-1 19 Feb 17:20:28 17:24:47 48° 289° (WNW) 17:29:04 437.445
XW-2D 19 Feb 17:20:39 17:24:28 70° 75° (ENE) 17:28:20 145.860 - 145.880
DOVE 4 19 Feb 17:22:16 17:26:26 74° 74° (ENE) 17:30:35 437.250
XW-2B 19 Feb 17:25:31 17:29:21 77° 75° (ENE) 17:33:13 145.730 - 145.750
KAITUO 1B 19 Feb 17:26:46 17:30:31 66° 75° (ENE) 17:34:20 145.475/437.950
CUTE 1.7 + AOD 2 19 Feb 17:28:58 17:30:41 12° 60° (ENE) 17:32:24 437.475
ISS 19 Feb 17:31:11 17:33:27 18° 224° (SW) 17:35:43 437.550
XW-2C 19 Feb 17:33:51 17:37:42 84° 257° (WSW) 17:41:36 145.795 - 145.815
MOZHAYETS 4 19 Feb 17:39:49 17:41:25 12° 303° (WNW) 17:43:03
LilacSat-2 19 Feb 17:43:32 17:47:21 62° 259° (WSW) 17:51:14 437.200
M-CUBED/EXP-1 PRIME 19 Feb 17:44:24 17:47:58 83° 108° (ESE) 17:51:47 437.505
HO-68 19 Feb 18:01:39 18:08:25 46° 63° (ENE) 18:15:10 435.675
XW-2A 19 Feb 18:02:13 18:05:14 31° 70° (ENE) 18:08:17 145.665 - 145.685
NUDT-PHONESAT 19 Feb 18:10:15 18:13:45 37° 262° (W) 18:17:18 437.300
CUBEBUG 2 19 Feb 18:12:27 18:15:12 16° 61° (ENE) 18:18:00 437.445
STARS 19 Feb 18:13:39 18:17:31 31° 293° (WNW) 18:21:24 437.465
CUTE-I 19 Feb 18:16:31 18:21:31 41° 262° (W) 18:26:36 437.470
RS-15 19 Feb 18:17:06 18:28:41 61° 115° (ESE) 18:40:42 29.354- 29.394
CUBESAT XI-V 19 Feb 18:19:32 18:23:08 23° 296° (WNW) 18:26:41 437.345
PCSat 19 Feb 18:20:00 18:25:24 70° 305° (NW) 18:30:51 145.827
SEEDS 19 Feb 18:36:26 18:40:20 37° 70° (ENE) 18:44:16 437.485
AAUSAT CUBESAT 2 19 Feb 18:46:13 18:49:37 25° 67° (ENE) 18:53:01 437.432
AO-73 19 Feb 18:56:25 18:59:14 17° 61° (ENE) 19:02:05 145.935
XW-2F 19 Feb 18:57:38 18:58:34 11° 272° (W) 18:59:31 145.980 - 146.000
XW-2D 19 Feb 18:59:02 18:59:08 10° 272° (W) 18:59:14 145.860 - 145.880
CUTE 1.7 + AOD 2 19 Feb 19:01:36 19:05:54 81° 258° (WSW) 19:10:13 437.475
UWE-3 19 Feb 19:02:35 19:06:28 31° 67° (ENE) 19:10:29 435.000/436.395/437.385
DOVE 4 19 Feb 19:04:05 19:04:41 10° 272° (W) 19:05:17 437.250
KAITUO 1B 19 Feb 19:04:17 19:04:59 10° 272° (W) 19:05:43 145.475/437.950
Oscar 11 19 Feb 19:11:14 19:14:25 20° 64° (ENE) 19:17:36 .
STRAND 1 19 Feb 19:17:50 19:22:49 47° 99° (E) 19:27:46 437.568
XW-2A 19 Feb 19:35:50 19:38:06 17° 267° (W) 19:40:22 145.665 - 145.685
ZACube-1 19 Feb 19:38:24 19:42:34 44° 70° (ENE) 19:46:52 437.345
DELFI C3 19 Feb 19:44:13 19:46:12 14° 62° (ENE) 19:48:13 145.870
CUBEBUG 2 19 Feb 19:47:00 19:51:18 61° 260° (W) 19:55:47 437.445
HO-68 19 Feb 19:49:34 19:56:12 40° 263° (W) 20:02:53 435.675
PCSat 19 Feb 20:06:15 20:09:49 17° 327° (NNW) 20:13:23 145.827
SEEDS 19 Feb 20:12:49 20:16:09 22° 267° (W) 20:19:29 437.485
AAUSAT CUBESAT 2 19 Feb 20:21:10 20:24:57 33° 264° (W) 20:28:44 437.432
RS-15 19 Feb 20:29:47 20:41:35 54° 321° (NW) 20:53:44 29.354- 29.394
AO-73 19 Feb 20:30:39 20:34:59 60° 260° (W) 20:39:28 145.935
UWE-3 19 Feb 20:39:07 20:42:55 29° 266° (W) 20:46:51 435.000/436.395/437.385
Oscar 11 19 Feb 20:46:03 20:50:14 46° 261° (W) 20:54:28 .
PRISM 19 Feb 20:51:54 20:54:50 19° 93° (E) 20:57:45 437.425
STRAND 1 19 Feb 20:57:31 21:01:45 26° 297° (WNW) 21:05:57 437.568
YUBILEINY 19 Feb 20:58:16 21:06:04 34° 66° (ENE) 21:13:47 435.215
ZACube-1 19 Feb 21:15:46 21:19:04 21° 268° (W) 21:22:27 437.345
DELFI C3 19 Feb 21:16:36 21:20:32 61° 259° (W) 21:24:29 145.870
FO-29 19 Feb 21:26:12 21:31:09 18° 83° (E) 21:35:53 435.910
ESTCUBE 1 19 Feb 21:45:05 21:48:39 23° 64° (ENE) 21:52:14 437.505/2401.250
UNISAT 6 19 Feb 22:13:04 22:17:45 60° 101° (E) 22:22:23 437.425
TIGRISAT 19 Feb 22:15:25 22:20:06 59° 101° (E) 22:24:44 435.000
PRISM 19 Feb 22:26:28 22:30:17 40° 290° (WNW) 22:34:06 437.425
VELOX 1 19 Feb 22:38:24 22:42:07 28° 66° (ENE) 22:45:51 145.980
RS-15 19 Feb 22:47:00 22:57:41 32° 353° (N) 23:08:24 29.354- 29.394
DX 1 19 Feb 22:52:10 22:55:12 19° 62° (ENE) 22:58:15 434.975-435.025
O/OREOS (USA 219) 19 Feb 22:54:24 22:56:48 14° 99° (E) 22:59:11 437.305
YUBILEINY 19 Feb 22:54:50 23:03:23 60° 268° (W) 23:11:51 435.215
DUCHIFAT 1 19 Feb 22:55:00 22:57:02 13° 89° (E) 22:59:01 145.980
EO-79 19 Feb 22:57:32 23:00:19 17° 91° (E) 23:03:05 145.935-145.965
FO-29 19 Feb 23:09:25 23:17:21 82° 104° (ESE) 23:24:41 435.910
POLYITAN 1 19 Feb 23:12:26 23:15:57 24° 94° (E) 23:19:25 437.675
QB50P2 19 Feb 23:15:00 23:18:40 27° 95° (E) 23:22:19 145.880/145.840
UKube-1 19 Feb 23:16:47 23:20:14 24° 65° (ENE) 23:23:40 .
NANOSAT C BR1 19 Feb 23:18:05 23:21:38 25° 94° (E) 23:25:09 145.865
50 SAT 19 Feb 23:18:53 23:22:15 44° 72° (ENE) 23:25:38 437.505
ESTCUBE 1 19 Feb 23:20:57 23:25:14 41° 262° (W) 23:29:31 437.505/2401.250
SO-50 19 Feb 23:30:36 23:34:56 37° 118° (ESE) 23:39:12 436.795
SPROUT 19 Feb 23:34:08 23:38:22 79° 73° (ENE) 23:42:39 437.525
PCSat 19 Feb 23:41:13 23:42:01 10° 20° (NNE) 23:42:48 145.827
AIST 2D 19 Feb 23:43:43 23:47:19 89° 283° (WNW) 23:50:53 435.315
UNISAT 6 19 Feb 23:50:48 23:54:01 19° 298° (WNW) 23:57:13 437.425
TIGRISAT 19 Feb 23:53:05 23:56:19 19° 298° (WNW) 23:59:34 435.000
VELOX 1 20 Feb 00:14:33 00:18:29 32° 263° (W) 00:22:26 145.980
BUGSAT 1 20 Feb 00:16:48 00:20:40 34° 97° (E) 00:24:32 437.445
DX 1 20 Feb 00:26:51 00:31:03 49° 260° (W) 00:35:16 434.975-435.025
DUCHIFAT 1 20 Feb 00:28:53 00:33:08 65° 286° (WNW) 00:37:20 145.980
O/OREOS (USA 219) 20 Feb 00:31:11 00:35:37 65° 296° (WNW) 00:40:07 437.305
EO-79 20 Feb 00:32:13 00:36:22 51° 288° (WNW) 00:40:31 145.935-145.965
Gurwin Techsat 1B 20 Feb 00:45:08 00:47:16 12° 87° (E) 00:49:24 435.225
POLYITAN 1 20 Feb 00:47:52 00:51:48 35° 291° (WNW) 00:55:43 437.675
Oscar 19 20 Feb 00:49:32 00:53:38 24° 93° (E) 00:57:42 437.125/150
QB50P2 20 Feb 00:50:39 00:54:28 31° 292° (WNW) 00:58:15 145.880/145.840
UKube-1 20 Feb 00:52:06 00:56:05 37° 262° (W) 01:00:05 .
NANOSAT C BR1 20 Feb 00:53:32 00:57:23 33° 292° (WNW) 01:01:14 145.865
50 SAT 20 Feb 00:54:00 00:55:39 13° 269° (W) 00:57:18 437.505
FO-29 20 Feb 00:55:18 01:01:28 26° 304° (NW) 01:07:23 435.910
YUBILEINY 20 Feb 00:55:34 00:58:10 12° 291° (WNW) 01:00:47 435.215
RS-15 20 Feb 01:03:00 01:14:33 41° 27° (NNE) 01:25:48 29.354- 29.394
SO-50 20 Feb 01:11:09 01:15:26 34° 317° (NW) 01:19:39 436.795
SPROUT 20 Feb 01:13:59 01:14:51 11° 272° (W) 01:15:43 437.525
PCSat 20 Feb 01:22:24 01:27:15 31° 44° (NE) 01:32:03 145.827
MOZHAYETS 4 20 Feb 01:29:26 01:32:15 16° 60° (ENE) 01:35:05
ITUPSAT 1 20 Feb 01:37:02 01:41:39 48° 70° (ENE) 01:46:18 437.325
BEESAT 20 Feb 01:47:49 01:52:32 62° 72° (ENE) 01:57:17 436.000
BUGSAT 1 20 Feb 01:52:27 01:55:53 25° 294° (WNW) 01:59:20 437.445
AO-7 20 Feb 02:13:24 02:18:13 16° 87° (E) 02:23:00 .
O/OREOS (USA 219) 20 Feb 02:15:00 02:15:59 11° 318° (NW) 02:17:00 437.305
Gurwin Techsat 1B 20 Feb 02:22:37 02:27:59 87° 105° (ESE) 02:33:19 435.225
Oscar 19 20 Feb 02:28:17 02:33:13 48° 291° (WNW) 02:38:06 437.125/150
KKS-1 20 Feb 02:45:03 02:48:37 24° 64° (ENE) 02:52:11 437.445
ITAMSAT 1 20 Feb 02:48:17 02:52:54 30° 95° (E) 02:57:29 435.822/435.867
SO-50 20 Feb 02:56:14 02:57:15 11° 339° (NNW) 02:58:16 436.795
M-CUBED/EXP-1 PRIME 20 Feb 03:00:50 03:02:28 13° 58° (ENE) 03:04:06 437.505
MOZHAYETS 4 20 Feb 03:04:15 03:08:53 68° 258° (WSW) 03:13:32
PCSat 20 Feb 03:05:37 03:10:53 51° 244° (WSW) 03:16:06 145.827
ITUPSAT 1 20 Feb 03:16:05 03:19:44 21° 267° (W) 03:23:25 437.325
RS-15 20 Feb 03:16:17 03:28:44 89° 236° (SW) 03:40:39 29.354- 29.394
BEESAT 20 Feb 03:27:42 03:30:44 17° 270° (W) 03:33:47 436.000
STARS 20 Feb 03:36:06 03:40:04 35° 68° (ENE) 03:44:04 437.465
CUBESAT XI-V 20 Feb 03:46:53 03:51:28 56° 72° (ENE) 03:56:03 437.345
AO-7 20 Feb 04:03:59 04:12:22 76° 107° (ESE) 04:20:39 .
Gurwin Techsat 1B 20 Feb 04:04:07 04:07:13 16° 303° (WNW) 04:10:18 435.225
KKS-1 20 Feb 04:20:52 04:24:59 38° 262° (W) 04:29:09 437.445
ITAMSAT 1 20 Feb 04:27:35 04:32:26 39° 293° (WNW) 04:37:16 435.822/435.867
M-CUBED/EXP-1 PRIME 20 Feb 04:33:27 04:36:41 43° 255° (WSW) 04:39:49 437.505
STRAND 1 20 Feb 05:00:15 05:02:46 14° 56° (NE) 05:05:17 437.568
STARS 20 Feb 05:12:55 05:16:29 24° 266° (W) 05:20:06 437.465
AO-85 20 Feb 05:13:53 05:17:42 26° 116° (ESE) 05:21:18 145.980
LilacSat-2 20 Feb 05:16:04 05:17:39 12° 89° (E) 05:19:15 437.200
DOVE 4 20 Feb 05:18:37 05:21:38 17° 92° (E) 05:24:43 437.250
CUBESAT XI-V 20 Feb 05:26:05 05:29:12 17° 270° (W) 05:32:18 437.345
RS-15 20 Feb 05:30:10 05:39:33 27° 260° (W) 05:48:40 29.354- 29.394
NUDT-PHONESAT 20 Feb 05:39:01 05:41:36 17° 92° (E) 05:44:08 437.300
AO-7 20 Feb 05:57:32 06:04:25 30° 308° (NW) 06:11:17 .
SO-50 20 Feb 06:19:48 06:22:32 15° 30° (NNE) 06:25:13 436.795
XW-2F 20 Feb 06:24:01 06:27:52 68° 101° (E) 06:31:39 145.980 - 146.000
XW-2D 20 Feb 06:24:52 06:28:44 74° 101° (E) 06:32:33 145.860 - 145.880
KAITUO 1B 20 Feb 06:29:34 06:33:21 67° 101° (E) 06:37:06 145.475/437.950
XW-2B 20 Feb 06:29:45 06:33:38 82° 102° (ESE) 06:37:27 145.730 - 145.750
CUTE-I 20 Feb 06:30:27 06:35:50 65° 103° (ESE) 06:41:10 437.470
STRAND 1 20 Feb 06:36:00 06:41:09 85° 74° (ENE) 06:46:20 437.568
XW-2C 20 Feb 06:38:09 06:42:01 79° 284° (WNW) 06:45:50 145.795 - 145.815
CUTE 1.7 + AOD 2 20 Feb 06:45:19 06:47:44 15° 90° (E) 06:50:07 437.475
BEESAT 3 20 Feb 06:48:19 06:50:01 13° 110° (ESE) 06:51:44 437.485
LilacSat-2 20 Feb 06:48:30 06:52:19 57° 287° (WNW) 06:56:05 437.200
AO-85 20 Feb 06:53:45 06:57:58 41° 313° (NW) 07:01:57 145.980
XW-2A 20 Feb 06:54:26 06:57:18 24° 95° (E) 07:00:09 145.665 - 145.685
DOVE 4 20 Feb 06:55:11 06:59:36 56° 287° (WNW) 07:04:17 437.250
NUDT-PHONESAT 20 Feb 07:12:10 07:15:42 37° 289° (WNW) 07:19:10 437.300
HO-68 20 Feb 07:13:54 07:20:27 37° 96° (E) 07:26:58 435.675
CUBEBUG 2 20 Feb 07:35:25 07:39:22 26° 93° (E) 07:43:19 437.445
FO-29 20 Feb 07:43:31 07:46:29 13° 44° (NE) 07:49:31 435.910
PRISM 20 Feb 07:43:37 07:46:38 20° 64° (ENE) 07:49:39 437.425
SEEDS 20 Feb 07:52:57 07:57:03 50° 99° (E) 08:01:06 437.485
SO-50 20 Feb 07:59:20 08:03:51 67° 52° (NE) 08:08:18 436.795
XW-2F 20 Feb 08:00:07 08:01:29 12° 299° (WNW) 08:02:50 145.980 - 146.000
AAUSAT CUBESAT 2 20 Feb 08:00:31 08:04:12 30° 96° (E) 08:07:50 437.432
XW-2D 20 Feb 08:01:19 08:02:22 11° 300° (WNW) 08:03:23 145.860 - 145.880
KAITUO 1B 20 Feb 08:05:31 08:06:50 12° 299° (WNW) 08:08:10 145.475/437.950
CUTE-I 20 Feb 08:11:28 08:15:23 21° 300° (WNW) 08:19:18 437.470
AO-73 20 Feb 08:16:33 08:20:13 23° 93° (E) 08:23:49 145.935
STRAND 1 20 Feb 08:18:35 08:20:59 13° 272° (W) 08:23:25 437.568
CUTE 1.7 + AOD 2 20 Feb 08:19:46 08:23:55 56° 288° (WNW) 08:28:02 437.475
BEESAT 3 20 Feb 08:23:10 08:27:04 70° 308° (NW) 08:31:03 437.485
UWE-3 20 Feb 08:25:15 08:29:50 49° 99° (E) 08:34:21 435.000/436.395/437.385
XW-2A 20 Feb 08:27:13 08:30:00 23° 292° (WNW) 08:32:47 145.665 - 145.685
Oscar 11 20 Feb 08:30:54 08:34:35 26° 94° (E) 08:38:14 .
BEESAT 2 20 Feb 08:48:02 08:52:00 90° 310° (NW) 08:56:02 435.950
DELFI C3 20 Feb 08:52:36 08:54:41 14° 90° (E) 08:56:46 145.870
O/OREOS (USA 219) 20 Feb 08:59:27 09:03:50 44° 59° (ENE) 09:08:13 437.305
ZACube-1 20 Feb 08:59:59 09:04:35 68° 101° (E) 09:09:07 437.345
HO-68 20 Feb 09:01:31 09:08:20 49° 296° (WNW) 09:15:07 435.675
CUBEBUG 2 20 Feb 09:11:39 09:16:05 40° 291° (WNW) 09:20:30 437.445
UNISAT 6 20 Feb 09:13:57 09:18:22 68° 73° (ENE) 09:22:55 437.425
TIGRISAT 20 Feb 09:16:08 09:20:32 67° 74° (ENE) 09:25:06 435.000
Tancredo 1 20 Feb 09:16:23 09:17:52 13° 133° (SE) 09:19:21 437.200
PRISM 20 Feb 09:17:49 09:21:41 40° 261° (W) 09:25:33 437.425
FO-29 20 Feb 09:22:58 09:29:38 50° 66° (ENE) 09:36:58 435.910
SEEDS 20 Feb 09:29:37 09:32:22 17° 297° (WNW) 09:35:06 437.485
AAUSAT CUBESAT 2 20 Feb 09:36:09 09:39:33 25° 293° (WNW) 09:42:56 437.432
SO-50 20 Feb 09:41:00 09:43:48 16° 249° (WSW) 09:46:33 436.795
DUCHIFAT 1 20 Feb 09:49:23 09:51:38 14° 60° (ENE) 09:53:54 145.980
AO-73 20 Feb 09:52:18 09:56:35 41° 290° (WNW) 10:00:50 145.935
EO-79 20 Feb 09:52:28 09:55:19 18° 63° (ENE) 09:58:12 145.935-145.965
UWE-3 20 Feb 10:02:25 10:05:56 21° 297° (WNW) 10:09:26 435.000/436.395/437.385
YUBILEINY 20 Feb 10:02:51 10:10:32 35° 83° (E) 10:18:12 435.215
BEESAT 3 20 Feb 10:03:26 10:05:25 13° 328° (NNW) 10:07:25 437.485
Oscar 11 20 Feb 10:06:52 10:10:44 32° 292° (WNW) 10:14:34 .
POLYITAN 1 20 Feb 10:07:22 10:10:48 25° 66° (ENE) 10:14:18 437.675
QB50P2 20 Feb 10:09:53 10:13:29 28° 67° (ENE) 10:17:07 145.880/145.840
ISS 20 Feb 10:11:27 10:14:31 36° 143° (SE) 10:17:35 437.550
NANOSAT C BR1 20 Feb 10:12:30 10:15:58 26° 66° (ENE) 10:19:29 145.865
AIST 2D 20 Feb 10:20:18 10:23:42 45° 73° (ENE) 10:27:08 435.315
DELFI C3 20 Feb 10:25:59 10:29:48 51° 287° (WNW) 10:33:36 145.870
BEESAT 2 20 Feb 10:27:54 10:30:22 16° 326° (NW) 10:32:52 435.950
ZACube-1 20 Feb 10:37:33 10:40:19 16° 299° (WNW) 10:43:04 437.345
O/OREOS (USA 219) 20 Feb 10:39:27 10:42:58 22° 258° (WSW) 10:46:30 437.305
Tancredo 1 20 Feb 10:50:27 10:53:42 79° 148° (SSE) 10:56:57 437.200
HO-68 20 Feb 10:52:05 10:54:24 12° 317° (NW) 10:56:42 435.675
UNISAT 6 20 Feb 10:53:20 10:55:36 14° 272° (W) 10:57:53 437.425
TIGRISAT 20 Feb 10:55:25 10:57:44 14° 272° (W) 11:00:05 435.000
FO-29 20 Feb 11:08:29 11:14:50 38° 267° (W) 11:21:49 435.910
BUGSAT 1 20 Feb 11:08:51 11:12:26 32° 68° (ENE) 11:16:05 437.445
ESTCUBE 1 20 Feb 11:10:44 11:14:49 33° 96° (E) 11:18:52 437.505/2401.250
SPROUT 20 Feb 11:19:31 11:20:56 11° 88° (E) 11:22:21 437.525
DUCHIFAT 1 20 Feb 11:22:39 11:26:47 65° 258° (WSW) 11:31:01 145.980
EO-79 20 Feb 11:26:38 11:30:43 49° 260° (W) 11:34:52 145.935-145.965
POLYITAN 1 20 Feb 11:42:36 11:46:28 34° 264° (W) 11:50:21 437.675
QB50P2 20 Feb 11:45:29 11:49:12 30° 264° (W) 11:52:59 145.880/145.840
ISS 20 Feb 11:47:44 11:50:56 47° 340° (NNW) 11:54:09 437.550
NANOSAT C BR1 20 Feb 11:47:47 11:51:34 32° 264° (W) 11:55:24 145.865
AIST 2D 20 Feb 11:55:32 11:57:12 13° 270° (W) 11:58:52 435.315
YUBILEINY 20 Feb 11:58:15 12:06:54 58° 285° (WNW) 12:15:35 435.215
VELOX 1 20 Feb 12:01:28 12:05:35 37° 98° (E) 12:09:41 145.980
Gurwin Techsat 1B 20 Feb 12:07:36 12:11:58 27° 63° (ENE) 12:16:22 435.225
Oscar 19 20 Feb 12:08:29 12:13:21 44° 69° (ENE) 12:18:15 437.125/150
DX 1 20 Feb 12:12:47 12:16:15 23° 94° (E) 12:19:42 434.975-435.025
50 SAT 20 Feb 12:14:28 12:17:41 33° 98° (E) 12:20:51 437.505
Tancredo 1 20 Feb 12:27:14 12:30:14 33° 349° (N) 12:33:14 437.200
ITAMSAT 1 20 Feb 12:35:05 12:35:09 10° 52° (NE) 12:35:14 435.822/435.867
UKube-1 20 Feb 12:36:26 12:40:12 29° 96° (E) 12:43:56 .
BUGSAT 1 20 Feb 12:44:34 12:47:51 23° 266° (W) 12:51:10 437.445
ESTCUBE 1 20 Feb 12:47:43 12:51:32 28° 294° (WNW) 12:55:18 437.505/2401.250
SPROUT 20 Feb 12:53:04 12:57:22 75° 286° (WNW) 13:01:40 437.525
AO-7 20 Feb 13:14:27 13:21:36 33° 54° (NE) 13:28:46 .
ISS 20 Feb 13:24:56 13:27:54 29° 1° (N) 13:30:50 437.550
VELOX 1 20 Feb 13:38:19 13:41:51 24° 295° (WNW) 13:45:23 145.980
AO-85 20 Feb 13:42:14 13:46:00 43° 48° (NE) 13:49:46 145.980
Gurwin Techsat 1B 20 Feb 13:46:34 13:51:40 47° 261° (W) 13:56:49 435.225
BEESAT 20 Feb 13:47:11 13:49:22 13° 88° (E) 13:51:32 436.000
50 SAT 20 Feb 13:48:16 13:50:34 17° 295° (WNW) 13:52:53 437.505
DX 1 20 Feb 13:48:32 13:52:33 38° 291° (WNW) 13:56:34 434.975-435.025
Oscar 19 20 Feb 13:48:35 13:52:51 26° 266° (W) 13:57:10 437.125/150
YUBILEINY 20 Feb 14:01:57 14:06:02 14° 310° (NW) 14:10:07 435.215
Tancredo 1 20 Feb 14:04:06 14:07:05 32° 9° (N) 14:10:02 437.200
ITAMSAT 1 20 Feb 14:08:28 14:13:33 60° 71° (ENE) 14:18:43 435.822/435.867
UKube-1 20 Feb 14:12:25 14:16:11 30° 293° (WNW) 14:19:57 .
